Location: Unspecified
(0.0000°N, 0.0000°E)
Time: 06:38:09
(UTC+00:00)

Envisat - Pass Details

Date: 14 January 2018
Orbit: 764 x 766 km, 98.2° (Epoch: 20 January)

Event Time Altitude Azimuth Distance (km) Brightness Sun altitude
Rises 18:51:08 0° 129° (SE) 3,229 5.9 -9.8°
Reaches altitude 10° 18:55:07 10° 98° (E) 2,298 4.9 -10.7°
Enters shadow 18:55:22 10° 95° (E) 2,268 4.9 -10.8°
